Year,Month,Day,Hour,Minute,Value (Times are PST for temperature in C)
2018,01,27,10,13,4.80
2018,01,27,10,14,4.80
2018,01,27,10,15,4.80
2018,01,27,10,16,4.80
2018,01,27,10,17,4.80
2018,01,27,10,18,4.80
2018,01,27,10,19,4.80
2018,01,27,10,20,4.80
2018,01,27,10,21,4.80
2018,01,27,10,22,4.80
2018,01,27,10,23,4.80
2018,01,27,10,24,4.90
2018,01,27,10,25,4.90
2018,01,27,10,26,4.90
2018,01,27,10,27,5.00
2018,01,27,10,28,5.00
2018,01,27,10,29,5.00
2018,01,27,10,30,5.00
2018,01,27,10,31,5.00
2018,01,27,10,32,5.00
2018,01,27,10,33,5.00
2018,01,27,10,34,5.00
2018,01,27,10,35,4.90
2018,01,27,10,36,4.90
2018,01,27,10,37,4.90
2018,01,27,10,38,4.80
2018,01,27,10,39,4.80
2018,01,27,10,40,4.80
2018,01,27,10,41,4.80
2018,01,27,10,42,4.80
2018,01,27,10,43,4.90
2018,01,27,10,44,4.90
2018,01,27,10,45,4.90
2018,01,27,10,46,5.00
2018,01,27,10,47,5.00
2018,01,27,10,48,5.00
2018,01,27,10,49,5.10
2018,01,27,10,50,5.10
2018,01,27,10,51,5.10
2018,01,27,10,52,5.20
2018,01,27,10,53,5.20
2018,01,27,10,54,5.10
2018,01,27,10,55,5.10
2018,01,27,10,56,5.10
2018,01,27,10,57,5.20
2018,01,27,10,58,5.20
2018,01,27,10,59,5.20
2018,01,27,11,00,5.20
2018,01,27,11,01,5.20
2018,01,27,11,02,5.20
2018,01,27,11,03,5.20
2018,01,27,11,04,5.30
2018,01,27,11,05,5.30
2018,01,27,11,06,5.30
2018,01,27,11,07,5.30
2018,01,27,11,08,5.20
2018,01,27,11,09,5.20
2018,01,27,11,10,5.20
2018,01,27,11,11,5.20
2018,01,27,11,12,5.20
2018,01,27,11,13,5.10
2018,01,27,11,14,5.10
2018,01,27,11,15,5.10
2018,01,27,11,16,5.10
2018,01,27,11,17,5.10
2018,01,27,11,18,5.10
2018,01,27,11,19,5.10
2018,01,27,11,20,5.10
2018,01,27,11,21,5.10
2018,01,27,11,22,5.20
2018,01,27,11,23,5.20
2018,01,27,11,24,5.20
2018,01,27,11,25,5.20
2018,01,27,11,26,5.20
2018,01,27,11,27,5.30
2018,01,27,11,28,5.30
2018,01,27,11,29,5.30
2018,01,27,11,30,5.30
2018,01,27,11,31,5.30
2018,01,27,11,32,5.30
2018,01,27,11,33,5.30
2018,01,27,11,34,5.30
2018,01,27,11,35,5.30
2018,01,27,11,36,5.30
2018,01,27,11,37,5.30
2018,01,27,11,38,5.30
2018,01,27,11,39,5.40
2018,01,27,11,40,5.40
2018,01,27,11,41,5.50
2018,01,27,11,42,5.50
2018,01,27,11,43,5.60
2018,01,27,11,44,5.60
2018,01,27,11,45,5.70
2018,01,27,11,46,5.70
2018,01,27,11,47,5.80
2018,01,27,11,48,5.80
2018,01,27,11,49,5.80
2018,01,27,11,50,5.90
2018,01,27,11,51,5.90
2018,01,27,11,52,6.00
2018,01,27,11,53,6.10
2018,01,27,11,54,6.10
2018,01,27,11,55,6.20
2018,01,27,11,56,6.20
2018,01,27,11,57,6.30
2018,01,27,11,58,6.30
2018,01,27,11,59,6.40
2018,01,27,12,00,6.50
2018,01,27,12,01,6.50
2018,01,27,12,02,6.60
2018,01,27,12,03,6.60
2018,01,27,12,04,6.60
2018,01,27,12,05,6.70
2018,01,27,12,06,6.70
2018,01,27,12,07,6.70
2018,01,27,12,08,6.70
2018,01,27,12,09,6.70
2018,01,27,12,10,6.70
2018,01,27,12,11,6.70
2018,01,27,12,12,6.80
2018,01,27,12,13,6.80
2018,01,27,12,14,6.80
2018,01,27,12,15,6.80
2018,01,27,12,16,6.80
2018,01,27,12,17,6.80
2018,01,27,12,18,6.80
2018,01,27,12,19,6.80
2018,01,27,12,20,6.80
2018,01,27,12,21,6.80
2018,01,27,12,22,6.80
2018,01,27,12,23,6.80
2018,01,27,12,24,6.80
2018,01,27,12,25,6.80
2018,01,27,12,26,6.80
2018,01,27,12,27,6.80
2018,01,27,12,28,6.80
2018,01,27,12,29,6.80
2018,01,27,12,30,6.90
2018,01,27,12,31,6.90
2018,01,27,12,32,6.90
2018,01,27,12,33,6.90
2018,01,27,12,34,6.90
2018,01,27,12,35,6.90
2018,01,27,12,36,6.90
2018,01,27,12,37,6.90
2018,01,27,12,38,6.90
2018,01,27,12,39,6.90
2018,01,27,12,40,6.90
2018,01,27,12,41,6.90
2018,01,27,12,42,6.90
2018,01,27,12,43,6.90
2018,01,27,12,44,7.00
2018,01,27,12,45,7.00
2018,01,27,12,46,7.00
2018,01,27,12,47,7.10
2018,01,27,12,48,7.10
2018,01,27,12,49,7.10
2018,01,27,12,50,7.10
2018,01,27,12,51,7.20
2018,01,27,12,52,7.20
2018,01,27,12,53,7.20
2018,01,27,12,54,7.20
2018,01,27,12,55,7.20
2018,01,27,12,56,7.30
2018,01,27,12,57,7.30
2018,01,27,12,58,7.30
2018,01,27,12,59,7.30
2018,01,27,13,00,7.30
2018,01,27,13,01,7.30
2018,01,27,13,02,7.40
2018,01,27,13,03,7.40
2018,01,27,13,04,7.40
2018,01,27,13,05,7.40
2018,01,27,13,06,7.40
2018,01,27,13,07,7.40
2018,01,27,13,08,7.40
2018,01,27,13,09,7.40
2018,01,27,13,10,7.40
2018,01,27,13,11,7.40
2018,01,27,13,12,7.40
2018,01,27,13,13,7.40
2018,01,27,13,14,7.40
2018,01,27,13,15,7.40
2018,01,27,13,16,7.40
2018,01,27,13,17,7.40
2018,01,27,13,18,7.40
2018,01,27,13,52,8.10
2018,01,27,13,53,8.10
2018,01,27,13,54,8.10
2018,01,27,13,55,8.10
2018,01,27,13,56,8.20
2018,01,27,13,57,8.20
2018,01,27,13,58,8.20
2018,01,27,13,59,8.20
2018,01,27,14,00,8.10
2018,01,27,14,01,8.10
2018,01,27,14,02,8.20
2018,01,27,14,03,8.20
2018,01,27,14,04,8.20
2018,01,27,14,05,8.20
2018,01,27,14,06,8.20
2018,01,27,14,07,8.20
2018,01,27,14,08,8.20
2018,01,27,14,09,8.30
2018,01,27,14,10,8.30
2018,01,27,14,11,8.30
2018,01,27,14,12,8.30
2018,01,27,14,13,8.30
2018,01,27,14,14,8.20
2018,01,27,14,15,8.20
2018,01,27,14,16,8.20
2018,01,27,14,17,8.20
2018,01,27,14,18,8.20
2018,01,27,14,19,8.20
2018,01,27,14,20,8.20
2018,01,27,14,21,8.20
2018,01,27,14,22,8.20
2018,01,27,14,23,8.20
2018,01,27,14,24,8.20
2018,01,27,14,25,8.20
2018,01,27,14,26,8.20
2018,01,27,14,27,8.20
2018,01,27,14,28,8.20
2018,01,27,14,29,8.20
2018,01,27,14,30,8.20
2018,01,27,14,31,8.20
2018,01,27,14,32,8.20
2018,01,27,14,33,8.20
2018,01,27,14,34,8.20
2018,01,27,14,35,8.30
2018,01,27,14,36,8.30
2018,01,27,14,37,8.30
2018,01,27,14,38,8.30
2018,01,27,14,39,8.30
2018,01,27,14,40,8.30
2018,01,27,14,41,8.30
2018,01,27,14,42,8.30
2018,01,27,14,43,8.30
2018,01,27,14,44,8.30
2018,01,27,14,45,8.40
2018,01,27,14,46,8.40
2018,01,27,14,47,8.40
2018,01,27,14,48,8.40
2018,01,27,14,49,8.40
2018,01,27,14,50,8.40
2018,01,27,14,51,8.40
2018,01,27,14,52,8.40
2018,01,27,14,53,8.40
2018,01,27,14,54,8.40
2018,01,27,14,55,8.40
2018,01,27,14,56,8.40
2018,01,27,14,57,8.40
2018,01,27,14,58,8.40
2018,01,27,14,59,8.40
2018,01,27,15,00,8.40
2018,01,27,15,01,8.40
2018,01,27,15,02,8.40
2018,01,27,15,03,8.40
2018,01,27,15,04,8.40
2018,01,27,15,05,8.40
2018,01,27,15,06,8.40
2018,01,27,15,07,8.40
2018,01,27,15,08,8.40
2018,01,27,15,09,8.40
2018,01,27,15,10,8.40
2018,01,27,15,11,8.40
2018,01,27,15,12,8.40
2018,01,27,15,13,8.40
2018,01,27,15,14,8.40
2018,01,27,15,15,8.40
2018,01,27,15,16,8.40
2018,01,27,15,17,8.40
2018,01,27,15,18,8.40
2018,01,27,15,19,8.40
2018,01,27,15,20,8.40
2018,01,27,15,21,8.40
2018,01,27,15,22,8.40
2018,01,27,15,23,8.40
2018,01,27,15,24,8.40
2018,01,27,15,25,8.40
2018,01,27,15,26,8.40
2018,01,27,15,27,8.40
2018,01,27,15,28,8.40
2018,01,27,15,29,8.40
2018,01,27,15,30,8.50
2018,01,27,15,31,8.50
2018,01,27,15,32,8.50
2018,01,27,15,33,8.50
2018,01,27,15,34,8.50
2018,01,27,15,35,8.50
2018,01,27,15,36,8.50
2018,01,27,15,37,8.50
2018,01,27,15,38,8.50
2018,01,27,15,39,8.50
2018,01,27,15,40,8.40
2018,01,27,15,41,8.40
2018,01,27,15,42,8.40
2018,01,27,15,43,8.40
2018,01,27,15,44,8.40
2018,01,27,15,45,8.40
2018,01,27,15,46,8.40
2018,01,27,15,47,8.40
2018,01,27,15,48,8.40
2018,01,27,15,49,8.40
2018,01,27,15,50,8.40
2018,01,27,15,51,8.40
2018,01,27,15,52,8.40
2018,01,27,15,53,8.40
2018,01,27,15,54,8.40
2018,01,27,15,55,8.40
2018,01,27,15,56,8.40
2018,01,27,15,57,8.40
2018,01,27,15,58,8.30
2018,01,27,15,59,8.30
2018,01,27,16,00,8.30
2018,01,27,16,01,8.30
2018,01,27,16,02,8.40
2018,01,27,16,03,8.40
2018,01,27,16,04,8.40
2018,01,27,16,05,8.40
2018,01,27,16,06,8.40
2018,01,27,16,07,8.30
2018,01,27,16,08,8.40
2018,01,27,16,09,8.40
2018,01,27,16,10,8.40
2018,01,27,16,11,8.40
2018,01,27,16,12,8.40
2018,01,27,16,13,8.40
2018,01,27,16,14,8.40
2018,01,27,16,15,8.40
2018,01,27,16,16,8.40
2018,01,27,16,17,8.40
2018,01,27,16,18,8.40
2018,01,27,16,19,8.40
2018,01,27,16,20,8.40
2018,01,27,16,21,8.30
2018,01,27,16,22,8.40
2018,01,27,16,23,8.30
2018,01,27,16,24,8.30
2018,01,27,16,25,8.30
2018,01,27,16,26,8.30
2018,01,27,16,27,8.30
2018,01,27,16,28,8.30
2018,01,27,16,29,8.30
2018,01,27,16,30,8.30
2018,01,27,16,31,8.30
2018,01,27,16,32,8.30
2018,01,27,16,33,8.30
2018,01,27,16,34,8.30
2018,01,27,16,35,8.30
2018,01,27,16,36,8.20
2018,01,27,16,37,8.20
2018,01,27,16,38,8.20
2018,01,27,16,39,8.20
2018,01,27,16,40,8.20
2018,01,27,16,41,8.20
2018,01,27,16,42,8.20
2018,01,27,16,43,8.20
2018,01,27,16,44,8.20
2018,01,27,16,45,8.10
2018,01,27,16,46,8.10
2018,01,27,16,47,8.10
2018,01,27,16,48,8.10
2018,01,27,16,49,8.10
2018,01,27,16,50,8.10
2018,01,27,16,51,8.10
2018,01,27,16,52,8.10
2018,01,27,16,53,8.10
2018,01,27,16,54,8.10
2018,01,27,16,55,8.10
